AD2FB Weather Reports


time (UTC)temp
C
wind
direction
speed
KPH
gust
KPH
rain 1hr
cm
rain 24hr
cm
rain mn
cm
humidity
%
barometer
mb
20260504045023 4 0.0 0.0 0.00 0.00 0.00 84 1012.0
20260504044031 4 0.0 0.0 0.00 0.00 0.00 84 1012.0
20260504043020 5 0.0 0.0 0.00 0.00 0.00 82 1011.9
20260504042028 5 0.0 0.0 0.00 0.00 0.00 80 1011.9
20260504041056 5 0.0 0.0 0.00 0.00 0.00 79 1011.9
20260504040025 6 0.0 0.0 0.00 0.00 0.00 77 1012.0
20260504035053 6 0.0 0.0 0.00 0.00 0.00 76 1011.9
20260504034023 6 0.0 0.0 0.00 0.00 0.00 74 1012.0
20260504033031 6 0.0 0.0 0.00 0.00 0.00 72 1012.1
20260504032021 7 0.0 0.0 0.00 0.00 0.00 71 1012.1
20260504031028 7 0.0 0.0 0.00 0.00 0.00 69 1012.1
20260504030037 8 0.0 0.0 0.00 0.00 0.00 67 1012.1
20260504025026 8 270 0.0 1.6 0.00 0.00 0.00 66 1012.1
20260504024054 8 0.0 0.0 0.00 0.00 0.00 63 1012.1
20260504023024 9 0.0 0.0 0.00 0.00 0.00 61 1012.1
20260504022032 10 0.0 1.6 0.00 0.00 0.00 59 1012.0
20260504021021 10 0.0 0.0 0.00 0.00 0.00 56 1012.0
20260504020029 11 0.0 0.0 0.00 0.00 0.00 52 1011.9
20260504015037 11 0.0 0.0 0.00 0.00 0.00 50 1011.8
20260504014026 11 158 0.0 3.2 0.00 0.00 0.00 49 1011.8
20260504013034 11 0.0 0.0 0.00 0.00 0.00 48 1011.8
20260504012029 12 0.0 0.0 0.00 0.00 0.00 47 1011.6
20260504011034 12 315 0.0 3.2 0.00 0.00 0.00 46 1011.6
20260504010021 12 224 3.2 4.8 0.00 0.00 0.00 45 1011.5
20260504005029 12 271 3.2 4.8 0.00 0.00 0.00 45 1011.5
20260504004019 12 304 3.2 6.4 0.00 0.00 0.00 44 1011.4
20260504003027 12 265 3.2 6.4 0.00 0.00 0.00 44 1011.4
20260504002035 13 258 3.2 4.8 0.00 0.00 0.00 43 1011.3
20260504001024 13 280 3.2 8.0 0.00 0.00 0.00 42 1011.2
20260504000032 13 295 3.2 6.4 0.00 0.00 0.00 41 1011.2
20260503235042 13 261 4.8 8.0 0.00 0.00 0.00 40 1011.1
20260503234029 13 301 6.4 9.7 0.00 0.00 0.00 39 1011.0
20260503233039 14 306 8.0 14.5 0.00 0.00 0.00 39 1011.0
20260503232028 14 332 6.4 9.7 0.00 0.00 0.00 39 1011.0
20260503231034 14 283 4.8 6.4 0.00 0.00 0.00 39 1011.0
20260503230024 15 317 8.0 14.5 0.00 0.00 0.00 39 1010.9
20260503225032 15 263 6.4 14.5 0.00 0.00 0.00 39 1010.9
20260503224021 15 251 4.8 8.0 0.00 0.00 0.00 39 1010.9
20260503223049 15 284 8.0 11.3 0.00 0.00 0.00 39 1011.0
20260503222019 16 290 8.0 16.1 0.00 0.00 0.00 37 1011.0
20260503221027 15 267 6.4 9.7 0.00 0.00 0.00 40 1011.1
20260503220034 14 300 9.7 11.3 0.00 0.00 0.00 39 1011.1
20260503215023 15 295 6.4 8.0 0.00 0.00 0.00 40 1011.1
20260503214031 15 280 9.7 16.1 0.00 0.00 0.00 38 1011.1
20260503213021 15 284 6.4 11.3 0.00 0.00 0.00 39 1011.0
20260503212028 15 288 9.7 20.9 0.00 0.00 0.00 39 1011.0
20260503211036 15 289 11.3 16.1 0.00 0.00 0.00 37 1011.0
20260503210025 15 275 8.0 19.3 0.00 0.00 0.00 38 1011.0
20260503204022 14 225 6.4 11.3 0.00 0.00 0.00 39 1011.3
20260503203050 15 245 6.4 11.3 0.00 0.00 0.00 40 1011.3
20260503202120 15 285 9.7 17.7 0.00 0.00 0.00 38 1011.3
20260503201027 15 309 8.0 12.9 0.00 0.00 0.00 39 1011.5
20260503200036 15 269 6.4 9.7 0.00 0.00 0.00 38 1011.6
20260503195025 15 291 6.4 9.7 0.00 0.00 0.00 38 1011.8
20260503194033 16 331 9.7 12.9 0.00 0.00 0.00 37 1011.9
20260503193023 15 279 9.7 12.9 0.00 0.00 0.00 37 1012.1
20260503192030 14 286 8.0 12.9 0.00 0.00 0.00 38 1012.3
20260503191019 13 311 8.0 12.9 0.00 0.00 0.00 40 1012.4
20260503190027 15 327 9.7 16.1 0.00 0.00 0.00 38 1012.4
20260503185035 13 271 9.7 14.5 0.00 0.00 0.00 40 1012.6
20260503184107 13 293 9.7 22.5 0.00 0.00 0.00 39 1012.6
20260503183033 15 254 9.7 14.5 0.00 0.00 0.00 37 1012.6
20260503182022 15 298 11.3 20.9 0.00 0.00 0.00 38 1012.6
20260503181030 15 299 12.9 19.3 0.00 0.00 0.00 38 1012.7
20260503180019 15 292 11.3 17.7 0.00 0.00 0.00 37 1012.7
20260503175026 13 321 11.3 22.5 0.00 0.00 0.00 39 1013.0
20260503174034 13 288 9.7 17.7 0.00 0.00 0.00 38 1013.0
20260503173024 14 308 8.0 14.5 0.00 0.00 0.00 37 1013.0
20260503172032 15 292 9.7 17.7 0.00 0.00 0.00 36 1013.0
20260503171020 13 309 9.7 16.1 0.00 0.00 0.00 37 1013.2
20260503131023 8 321 9.7 12.9 0.00 0.00 0.00 55 1015.2
20260503130111 8 316 8.0 14.5 0.00 0.00 0.00 56 1015.4
20260503110114 0 300 1.6 3.2 0.00 0.00 0.00 98 1015.3
20260503081102 2 285 3.2 4.8 0.00 0.00 0.00 83 1014.5
20260503072024 2 270 1.6 4.8 0.00 0.00 0.00 82 1014.5
20260503071032 2 270 0.0 3.2 0.00 0.00 0.00 82 1014.5
20260503055022 3 275 3.2 6.4 0.00 0.00 0.00 81 1014.8
20260503054030 3 297 3.2 6.4 0.00 0.00 0.00 80 1014.9
20260503053019 3 278 3.2 6.4 0.00 0.00 0.00 80 1015.0
20260503052027 3 279 1.6 4.8 0.00 0.00 0.00 79 1015.0
20260503051055 3 310 3.2 4.8 0.00 0.00 0.00 79 1015.1
20260503050024 3 289 1.6 4.8 0.00 0.00 0.00 78 1015.1